Location: Newark
(54.6833°N, 25.2833°E)
Time: 19:02:14
(UTC+00:00)

A-11 Canister half - Pass Details

Date: 24 January 2021
Orbit: 1525 x 1684 km, 47.3° (Epoch: 05 March)

Event Time Altitude Azimuth Distance (km) Brightness Sun altitude
Rises 20:43:56 0° 282° (WNW) 4,799 12.1 -48.9°
Reaches altitude 10° 20:49:54 10° 254° (WSW) 3,849 11.2 -49.4°
Enters shadow 20:51:12 11° 246° (WSW) 3,759 11.1 -49.6°
